Location: Aulnoy
(48.8410°N, 3.0967°E)
Time: 15:05:09
(UTC+00:00)

Landsat 7 - Pass Details

Date: 09 February 2023
Orbit: 692 x 694 km, 97.9° (Epoch: 26 March)

Event Time Altitude Azimuth Distance (km) Brightness Sun altitude
Exits shadow 19:14:45 65° 89° (E) 768 3.7 -22.9°
Maximum altitude 19:14:57 66° 73° (ENE) 763 3.7 -22.9°
Drops below altitude 10° 19:19:39 10° 352° (N) 2,165 6.5 -23.7°
Sets 19:21:55 0° 349° (N) 3,086 7.3 -24.0°
